Location: Passau
(48.5830°N, 13.4830°E)
Time: 06:49:30
(UTC+02:00)

Vanguard 1 - Pass Details

Date: 03 August 2021
Orbit: 652 x 3831 km, 34.3° (Epoch: 16 September)

Event Time Altitude Azimuth Distance (km) Brightness Sun altitude
Rises 15:52:37 0° 256° (WSW) 3,836 13.8 45.0°
Reaches altitude 10° 15:55:45 10° 239° (WSW) 3,236 13.8 44.5°
Maximum altitude 16:01:21 20° 195° (SSW) 3,186 13.4 43.7°
Drops below altitude 10° 16:09:20 10° 156° (SSE) 4,824 13.7 42.5°
Sets 16:15:41 0° 143° (SE) 6,486 14.1 41.6°
